Hailey, ID

9:09 PM MDT on May 25, 2017 (GMT -0600)
Friedman Memorial

Weather History for KSUN - May, 2013

Change the Weather History Date:

Tuesday, May 21, 2013

  Actual Average Record
Temperature  
Mean Temperature 52 °F -  
Max Temperature 64 °F 66 °F 80 °F (1999)
Min Temperature 39 °F 40 °F 32 °F (2001)
Degree Days  
Heating Degree Days 14    
Growing Degree Days 2 (Base 50)    
Moisture  
Dew Point 39 °F    
Average Humidity 68    
Maximum Humidity 81    
Minimum Humidity 39    
Precipitation  
Precipitation 0.00 in - - ()
Sea Level Pressure  
Sea Level Pressure 29.97 in    
Wind  
Wind Speed 8 mph (NW)    
Max Wind Speed 17 mph    
Max Gust Speed 29 mph    
Visibility 10 miles    
Events Rain , Thunderstorm    
Averages and records for this station are not official NWS values.
T = Trace of Precipitation, MM = Missing Value Source: NWS Daily Summary

Daily Weather History Graph

Daily Weather History Graph

Search for Another Location

Airport or City:

Trip Planner

Search our weather history database for the weather conditions in past years. The results will help you decide how hot, cold, wet, or windy it might be!

Date:

Astronomy

May. 21, 2013 Rise Set
Actual Time 6:06 AM MDT 9:01 PM MDT
Civil Twilight 5:32 AM MDT 9:35 PM MDT
Nautical Twilight 4:49 AM MDT 10:18 PM MDT
Astronomical Twilight 3:59 AM MDT 11:09 PM MDT
Moon 5:14 PM MDT (5/21) 3:43 AM MDT (5/21)
Length of Visible Light 16h 02m
Length of Day
14h 55m
Waxing Gibbous, 84% of the Moon is Illuminated
May 21
Waxing Gibbous
May 24
Full
May 31
Last Quarter
Jun 8
New
Jun 16
First Quarter

Hourly Weather History & Observations

Time (MDT) Temp. Windchill Dew Point Humidity Pressure Visibility Wind Dir Wind Speed Gust Speed Precip Events Conditions
12:15 AM 48.2 °F - 37.4 °F 66% 30.12 in 10.0 mi NW 5.8 mph - N/A   Clear
12:35 AM 46.4 °F 42.9 °F 37.4 °F 71% 30.12 in 10.0 mi NW 6.9 mph - N/A   Clear
12:55 AM 46.4 °F 42.9 °F 37.4 °F 71% 30.12 in 10.0 mi NW 6.9 mph - N/A   Clear
1:15 AM 46.4 °F 42.4 °F 37.4 °F 71% 30.11 in 10.0 mi NW 8.1 mph - N/A   Clear
1:35 AM 44.6 °F 40.7 °F 37.4 °F 76% 30.12 in 10.0 mi NW 6.9 mph - N/A   Clear
1:55 AM 44.6 °F 40.2 °F 35.6 °F 71% 30.11 in 10.0 mi NW 8.1 mph - N/A   Clear
2:15 AM 44.6 °F 39.7 °F 35.6 °F 71% 30.10 in 10.0 mi NW 9.2 mph - N/A   Clear
2:35 AM 42.8 °F 38.0 °F 35.6 °F 76% 30.10 in 10.0 mi WNW 8.1 mph - N/A   Clear
2:55 AM 42.8 °F 38.0 °F 35.6 °F 76% 30.10 in 10.0 mi NW 8.1 mph - N/A   Clear
3:15 AM 42.8 °F 38.6 °F 35.6 °F 76% 30.09 in 10.0 mi NW 6.9 mph - N/A   Clear
3:35 AM 42.8 °F 37.5 °F 35.6 °F 76% 30.09 in 10.0 mi NW 9.2 mph - N/A   Clear
3:55 AM 42.8 °F 38.0 °F 35.6 °F 76% 30.09 in 10.0 mi NW 8.1 mph - N/A   Clear
4:15 AM 41.0 °F 35.8 °F 35.6 °F 81% 30.09 in 10.0 mi WNW 8.1 mph - N/A   Clear
4:35 AM 41.0 °F 34.7 °F 35.6 °F 81% 30.08 in 10.0 mi NW 10.4 mph - N/A   Clear
4:55 AM 41.0 °F 35.2 °F 33.8 °F 76% 30.08 in 10.0 mi NW 9.2 mph - N/A   Clear
5:15 AM 41.0 °F 35.2 °F 33.8 °F 76% 30.07 in 10.0 mi NW 9.2 mph - N/A   Clear
5:35 AM 41.0 °F 34.7 °F 33.8 °F 76% 30.07 in 10.0 mi NW 10.4 mph - N/A   Clear
5:55 AM 39.2 °F 33.0 °F 33.8 °F 81% 30.06 in 10.0 mi NW 9.2 mph - N/A   Clear
6:15 AM 39.2 °F 32.0 °F 33.8 °F 81% 30.06 in 10.0 mi NW 11.5 mph - N/A   Clear
6:35 AM 39.2 °F 33.0 °F 33.8 °F 81% 30.06 in 10.0 mi NW 9.2 mph - N/A   Clear
6:47 AM 39.2 °F 33.6 °F 33.8 °F 81% 30.06 in 10.0 mi WNW 8.1 mph - N/A   Partly Cloudy
6:55 AM 39.2 °F 31.6 °F 33.8 °F 81% 30.06 in 10.0 mi NNW 12.7 mph - N/A   Clear
7:47 AM 42.8 °F 37.0 °F 35.6 °F 76% 30.04 in 10.0 mi NW 10.4 mph - N/A   Partly Cloudy
8:47 AM 48.2 °F - 35.6 °F 62% 30.04 in 10.0 mi WNW 11.5 mph - N/A   Scattered Clouds
9:47 AM 53.6 °F - 35.6 °F 51% 30.01 in 10.0 mi WNW 4.6 mph - N/A   Mostly Cloudy
10:47 AM 59.0 °F - 41.0 °F 51% 29.99 in 10.0 mi SE 6.9 mph - N/A   Overcast
11:47 AM 62.6 °F - 42.8 °F 48% 29.96 in 10.0 mi SSE 10.4 mph - N/A   Mostly Cloudy
12:47 PM 64.4 °F - 42.8 °F 45% 29.92 in 10.0 mi SSE 17.3 mph 28.8 mph N/A   Mostly Cloudy
1:47 PM 64.4 °F - 41.0 °F 42% 29.89 in 10.0 mi ESE 15.0 mph 20.7 mph N/A Rain Light Rain
2:15 PM 62.6 °F - 37.4 °F 39% 29.90 in 10.0 mi WSW 11.5 mph 23.0 mph N/A Rain , Thunderstorm Light Thunderstorms and Rain
3:55 PM 62.6 °F - 41.0 °F 45% 29.83 in 10.0 mi WNW 8.1 mph - N/A   Overcast
4:55 PM 60.8 °F - 44.6 °F 55% 29.84 in 10.0 mi NW 11.5 mph - N/A   Overcast
6:47 PM 62.6 °F - 44.6 °F 52% 29.76 in 10.0 mi WSW 9.2 mph - N/A   Mostly Cloudy
7:30 PM 62.6 °F - 44.6 °F 52% 29.75 in 10.0 mi Calm Calm - N/A Rain , Thunderstorm Light Thunderstorms and Rain
7:55 PM 60.8 °F - 46.4 °F 59% 29.75 in 3.0 mi Calm Calm - N/A Rain , Thunderstorm Heavy Thunderstorms and Rain
8:17 PM 55.4 °F - 44.6 °F 67% 29.74 in 10.0 mi West 4.6 mph - N/A   Mostly Cloudy
8:55 PM 55.4 °F - 44.6 °F 67% 29.72 in 10.0 mi West 9.2 mph - N/A   Mostly Cloudy
9:55 PM 53.6 °F - 46.4 °F 77% 29.73 in 10.0 mi NNW 4.6 mph - N/A   Mostly Cloudy
10:50 PM 51.8 °F - 44.6 °F 76% 29.71 in 10.0 mi WNW 4.6 mph - N/A   Scattered Clouds
11:15 PM 51.8 °F - 42.8 °F 71% 29.72 in 10.0 mi NW 4.6 mph - N/A   Clear
11:35 PM 51.8 °F - 42.8 °F 71% 29.71 in 10.0 mi NW 8.1 mph - N/A   Clear
11:55 PM 51.8 °F - 42.8 °F 71% 29.71 in 10.0 mi NW 5.8 mph - N/A   Clear